Location: Acts Church of Fort Worth
(32.6786°N, 97.2668°W)
Time: 03:40:12
(UTC+00:00)

Cosmos 2228 Rocket - Pass Details

Date: 23 April 2026
Orbit: 611 x 647 km, 82.5° (Epoch: 11 May)

Event Time Altitude Azimuth Distance (km) Brightness Sun altitude
Rises 01:39:13 0° 335° (NNW) 2,902 7.3 -7.8°
Reaches altitude 10° 01:41:57 10° 318° (NW) 1,985 6.8 -8.4°
Maximum altitude 01:45:05 20° 272° (W) 1,451 6.1 -9.0°
Drops below altitude 10° 01:48:12 10° 226° (SW) 1,965 6.0 -9.6°
Sets 01:50:54 0° 209° (SSW) 2,862 6.6 -10.1°
